Wind_Speed
21 13 9 10 10 10 11 9 8 8 9 11 12 12 11 9 8 7 7 8 8 10 9 10 9 9 10 9 10 9 9 8 7 9 9 8 8 7 7 7 9 9 10
19 15 10 10 11 11 10 9 8 8 7 9 11 11 9 7 8 9 8 11 12 12 12 10 10 10 11 11 11 10 10 11 11 11 8 6 6 7 5 6 7 8 8
15 12 10 10 10 12 11 7 8 8 10 11 10 9 11 10 10 10 11 12 11 10 11 12 12 12 12 12 13 12 12 13 12 8 8 7 5 4 5 5 6 6 6
12 12 11 10 10 11 11 8 9 9 12 12 12 11 12 12 11 13 13 10 10 10 11 11 11 12 12 12 14 13 11 11 11 10 8 5 3 2 2 3 4 5 6
13 12 11 10 9 9 11 10 10 8 11 14 13 10 11 12 13 12 11 10 9 9 9 9 10 10 11 9 9 8 7 6 6 6 6 6 4 3 2 2 3 4 5
12 11 11 10 9 9 10 9 9 8 11 11 11 11 12 13 12 11 10 9 9 8 8 8 10 12 10 10 9 7 5 6 6 5 3 4 5 3 3 1 2 3 4
12 11 9 10 9 11 11 10 13 11 11 10 11 12 12 11 11 10 10 11 11 10 9 9 10 10 8 7 6 5 5 5 6 7 6 5 4 2 1 1 1 2 3
9 12 11 9 9 11 12 12 11 11 10 10 12 10 11 11 10 10 12 12 12 12 11 10 8 8 6 4 3 4 6 8 7 8 8 5 3 1 1 1 2 3 3
10 12 13 10 10 10 12 13 10 8 8 9 10 10 11 10 10 10 11 12 12 11 11 10 8 7 6 2 1 5 8 10 11 11 8 8 1 2 3 4 4 5 6
10 14 12 11 11 11 13 11 8 8 8 7 10 10 10 10 9 10 10 10 10 11 11 9 8 8 7 4 1 2 7 9 10 11 12 9 6 5 3 5 4 6 8
10 12 14 12 13 12 14 12 8 7 6 9 10 8 9 9 8 9 8 8 9 11 11 9 8 7 5 3 1 5 7 9 11 12 9 10 9 6 7 6 8 8 8
13 12 13 14 15 16 14 12 8 7 8 9 9 9 9 9 8 7 7 8 9 10 8 5 6 3 2 2 3 8 8 13 11 10 10 8 6 5 7 5 7 8 7
14 14 13 14 16 17 15 10 10 11 10 10 9 8 8 8 7 6 6 8 9 7 5 4 4 4 6 8 6 5 5 17 17 11 9 5 3 4 4 4 6 7 7
14 14 14 15 16 17 17 10 10 9 7 7 7 6 6 6 6 6 6 6 6 5 5 5 4 7 4 16 9 9 11 12 16 13 10 2 1 1 1 5 9 7 5
13 14 16 15 17 18 16 11 10 5 8 8 7 5 5 8 7 3 3 4 4 3 4 3 5 6 8 13 16 9 13 11 9 16 7 2 2 2 3 5 9 9 6
13 15 17 18 21 20 15 11 8 8 8 7 3 4 5 6 4 1 1 1 1 2 1 2 6 7 10 8 10 13 5 8 12 6 4 3 4 5 3 5 8 11 4
13 14 17 18 18 17 14 10 9 9 6 4 4 4 4 4 2 2 1 2 1 0 1 0 5 8 7 6 8 9 6 5 5 4 4 5 3 2 1 3 6 10 6
15 16 18 17 17 15 12 10 11 8 6 4 3 3 4 7 3 4 3 5 4 2 0 1 3 8 7 8 6 6 5 4 1 3 3 2 2 1 2 3 5 9 9
19 18 17 17 14 12 11 9 10 10 6 3 2 4 5 4 4 1 4 5 3 2 2 2 3 6 9 6 3 4 5 7 3 1 1 4 5 4 2 1 4 9 9
20 20 19 16 15 15 14 9 10 8 10 4 5 3 2 2 2 2 7 8 7 4 3 2 4 6 7 7 7 2 5 4 0 1 2 3 2 1 2 0 4 8 10
22 21 21 20 15 17 15 13 9 9 8 7 4 2 1 2 2 2 8 5 7 5 6 3 3 5 5 7 6 2 2 3 5 2 0 1 0 0 2 1 2 6 10
24 22 22 21 19 15 17 12 8 10 9 7 5 3 1 2 2 1 5 4 4 5 7 5 3 3 5 7 7 5 2 3 3 4 3 0 2 1 1 1 3 5 8
25 24 22 20 19 14 15 13 11 10 7 7 6 6 1 2 1 1 2 9 4 4 3 2 1 2 4 5 9 8 5 3 4 2 3 2 2 4 2 3 6 0 5
27 26 24 22 20 17 15 12 11 11 10 7 6 4 4 5 5 3 2 6 6 4 1 2 2 2 3 6 7 8 9 8 4 2 4 2 3 2 1 4 10 1 3
27 28 25 24 21 20 19 15 14 13 13 10 9 7 6 6 7 4 3 4 6 4 0 3 4 3 4 5 5 6 8 8 7 6 5 5 5 8 1 2 9 3 2
32 31 27 25 22 22 19 18 16 14 11 11 9 9 7 5 8 7 5 4 4 3 2 3 4 4 4 4 4 6 7 8 6 6 6 8 5 5 5 7 7 3 2
Wind_Direction
182 174 166 167 159 145 143 138 134 131 135 148 154 154 151 142 132 124 116 114 116 112 124 133 130 126 115 115 129 125 121 116 115 105 106 102 103 113 113 121 125 133 136
183 180 173 178 180 171 148 137 136 131 137 151 157 163 159 147 133 122 108 105 101 93 108 115 112 110 114 121 110 110 113 107 102 95 94 105 104 97 102 119 125 144 151
166 174 171 175 174 175 181 153 128 121 141 140 133 137 137 134 130 114 107 105 113 120 115 103 104 105 108 109 111 107 103 103 98 93 87 99 99 90 84 136 129 149 159
162 169 168 168 174 167 177 152 141 120 136 137 120 120 130 126 118 107 106 111 113 114 105 105 108 105 101 100 104 99 98 88 82 72 70 89 100 100 79 123 148 160 173
170 169 163 158 157 163 171 148 123 122 140 135 115 120 125 120 115 111 115 115 119 112 103 100 102 110 96 98 99 88 82 78 61 47 48 59 65 48 62 116 158 178 188
168 163 161 144 144 146 137 142 140 134 131 138 127 119 118 114 107 109 111 108 99 100 101 106 109 109 97 94 98 83 65 46 42 34 23 23 50 42 38 57 153 173 197
176 163 168 156 152 144 129 118 112 124 117 124 126 119 110 107 104 102 97 88 94 99 103 109 120 126 117 98 93 78 62 44 43 40 45 45 35 23 20 224 196 227 230
197 184 176 172 155 147 138 130 122 115 118 120 113 108 107 104 100 98 91 92 93 93 89 89 110 137 129 115 86 69 47 34 25 26 26 31 26 17 348 272 278 272 255
205 205 183 178 167 156 146 133 126 118 120 119 120 114 110 111 106 102 96 94 90 83 80 84 90 114 145 130 85 25 19 14 8 356 11 1 188 42 356 321 317 290 272
175 183 180 170 161 151 142 138 135 125 119 143 123 122 122 117 116 104 98 94 87 86 90 95 102 118 134 153 203 328 357 357 358 354 334 339 345 24 340 310 305 286 273
161 173 174 166 156 141 138 135 135 137 146 128 122 124 123 121 119 110 98 90 87 84 86 88 104 121 142 165 329 340 342 333 333 341 346 331 333 334 311 313 305 301 283
159 154 161 162 157 149 146 127 124 125 118 121 125 126 128 128 124 105 95 83 78 80 85 77 77 61 9 286 313 322 332 325 327 315 311 313 316 304 291 322 311 298 285
154 154 152 159 162 156 150 129 124 117 114 114 120 128 133 135 121 104 89 82 83 68 68 36 5 0 355 3 344 310 288 285 291 300 306 296 283 286 305 344 338 308 294
156 150 156 158 163 164 157 146 129 127 110 118 119 123 129 128 120 105 87 84 74 61 53 48 10 17 31 353 334 1 312 308 281 257 300 264 218 255 338 2 1 330 302
150 160 160 157 160 168 165 151 150 137 124 130 116 107 117 125 121 88 60 75 66 45 47 29 23 1 331 329 323 327 320 306 322 257 262 177 127 56 26 357 4 352 326
152 155 158 159 158 162 168 164 163 152 139 144 105 132 111 144 142 49 73 11 57 32 59 22 4 340 352 31 347 339 289 317 344 230 277 165 123 65 7 341 359 4 360
157 157 152 153 155 162 167 170 171 168 157 137 132 180 165 175 194 198 262 238 230 2 83 327 328 320 341 351 15 31 17 57 70 196 193 169 128 80 301 325 357 8 351
161 166 159 160 158 159 163 167 177 186 176 172 148 178 187 180 240 213 275 224 226 281 191 251 330 348 343 334 359 50 61 48 27 144 161 148 201 222 307 332 354 20 20
175 175 176 167 171 173 183 184 181 196 196 202 195 171 184 225 199 319 221 201 183 233 208 234 330 348 356 0 13 95 39 357 21 55 233 227 221 230 247 277 20 29 33
187 190 193 183 181 177 173 164 169 181 201 213 169 135 168 185 269 312 203 207 235 213 221 266 328 338 10 18 31 248 294 331 96 178 145 172 191 346 264 96 36 37 37
211 205 202 194 189 196 188 188 195 197 202 210 210 270 184 205 247 304 205 251 230 214 222 232 337 324 340 11 17 352 290 338 46 14 17 205 6 101 59 55 34 31 36
212 212 207 205 205 208 208 204 207 195 205 223 241 224 138 172 5 146 223 225 215 196 211 249 301 335 348 0 1 328 305 282 258 359 0 352 159 279 310 329 347 25 34
203 205 204 200 200 202 202 210 204 199 214 228 228 198 251 195 180 156 183 172 165 192 201 203 301 330 12 8 16 12 351 355 325 307 328 244 339 300 242 350 328 91 34
207 203 207 207 200 199 205 210 203 223 228 223 222 225 238 199 202 144 112 184 182 170 145 19 297 318 343 355 8 12 31 25 1 22 63 355 5 312 168 47 28 125 36
213 211 209 212 209 208 207 211 223 228 225 219 233 240 226 219 207 200 162 135 157 169 184 352 352 328 347 354 8 20 14 8 8 3 57 38 34 31 69 314 349 52 55
219 218 214 216 215 217 217 220 227 224 228 221 227 227 219 218 213 215 215 194 204 221 240 290 303 324 318 327 321 331 359 0 16 6 5 12 13 14 358 348 340 275 225
Height
1528 1531 1533 1534 1536 1539 1539 1541 1542 1543 1545 1546 1547 1548 1549 1550 1550 1552 1552 1553 1554 1554 1556 1557 1557 1559 1560 1560 1560 1560 1561 1562 1563 1564 1564 1564 1564 1565 1565 1566 1567 1567 1568
1529 1531 1534 1536 1538 1540 1542 1543 1544 1546 1546 1548 1548 1549 1550 1551 1552 1553 1555 1555 1557 1557 1557 1558 1558 1559 1559 1559 1561 1563 1564 1564 1565 1566 1566 1566 1567 1567 1568 1568 1568 1569 1570
1530 1533 1535 1537 1540 1542 1543 1545 1547 1547 1548 1548 1550 1550 1552 1553 1554 1556 1557 1558 1559 1558 1558 1561 1561 1561 1562 1564 1565 1565 1565 1566 1566 1567 1567 1567 1568 1568 1569 1570 1570 1571 1572
1532 1534 1536 1538 1540 1543 1544 1547 1548 1549 1550 1550 1552 1552 1554 1554 1557 1558 1559 1560 1559 1560 1562 1562 1563 1564 1566 1567 1567 1567 1568 1568 1568 1569 1570 1570 1570 1570 1570 1571 1571 1572 1573
1534 1536 1538 1540 1542 1544 1546 1548 1550 1551 1550 1553 1555 1554 1557 1558 1559 1561 1561 1561 1561 1562 1563 1565 1566 1567 1568 1569 1570 1569 1571 1571 1571 1571 1570 1570 1571 1571 1571 1571 1572 1573 1574
1535 1538 1540 1542 1544 1546 1548 1550 1550 1552 1552 1553 1556 1558 1559 1560 1561 1561 1562 1563 1563 1564 1566 1567 1568 1570 1571 1571 1572 1573 1572 1572 1572 1572 1572 1572 1571 1571 1571 1572 1572 1573 1574
1537 1540 1543 1544 1545 1548 1549 1549 1552 1554 1554 1556 1559 1561 1562 1563 1563 1563 1564 1564 1565 1566 1568 1569 1570 1571 1572 1573 1573 1572 1573 1573 1573 1573 1572 1572 1572 1573 1573 1573 1573 1573 1574
1539 1541 1544 1546 1547 1550 1551 1553 1555 1556 1557 1559 1560 1563 1564 1564 1565 1566 1566 1566 1567 1569 1570 1571 1572 1573 1574 1574 1573 1574 1575 1575 1575 1575 1573 1572 1573 1574 1574 1573 1573 1573 1573
1539 1542 1545 1547 1550 1551 1552 1556 1556 1558 1559 1561 1562 1563 1565 1566 1567 1567 1568 1569 1570 1571 1572 1573 1573 1574 1574 1574 1574 1575 1576 1576 1577 1576 1575 1574 1573 1573 1574 1574 1572 1572 1572
1538 1541 1545 1548 1550 1553 1555 1557 1559 1561 1561 1562 1563 1566 1566 1567 1568 1570 1570 1571 1572 1573 1574 1574 1575 1574 1574 1573 1573 1575 1576 1576 1575 1575 1577 1576 1573 1572 1572 1573 1573 1572 1572
1539 1542 1546 1549 1552 1555 1558 1560 1561 1561 1563 1564 1566 1567 1568 1569 1570 1571 1573 1574 1574 1575 1576 1575 1574 1575 1574 1574 1575 1575 1576 1576 1577 1576 1575 1574 1575 1574 1572 1571 1571 1570 1570
1541 1544 1547 1550 1553 1556 1558 1561 1562 1563 1565 1566 1566 1568 1569 1570 1572 1573 1575 1576 1576 1576 1576 1576 1577 1576 1575 1574 1574 1575 1575 1577 1577 1576 1575 1574 1574 1573 1573 1571 1570 1569 1568
1542 1545 1548 1551 1554 1557 1560 1562 1564 1565 1566 1567 1568 1569 1571 1571 1573 1575 1576 1577 1577 1577 1578 1578 1577 1577 1576 1575 1575 1574 1578 1578 1577 1576 1575 1573 1571 1571 1572 1571 1570 1568 1566
1544 1546 1549 1551 1555 1558 1561 1563 1565 1566 1568 1569 1570 1571 1572 1573 1575 1576 1577 1578 1578 1578 1579 1579 1579 1578 1575 1573 1573 1573 1573 1574 1572 1574 1575 1573 1571 1571 1572 1572 1569 1567 1565
1546 1547 1550 1552 1555 1559 1561 1565 1566 1567 1568 1570 1572 1573 1573 1574 1576 1577 1578 1579 1580 1579 1580 1580 1579 1578 1576 1574 1572 1570 1571 1570 1569 1572 1574 1573 1572 1572 1572 1572 1570 1567 1565
1548 1550 1551 1554 1557 1559 1562 1565 1567 1568 1570 1572 1573 1573 1574 1575 1576 1577 1579 1580 1580 1580 1580 1580 1579 1578 1576 1575 1573 1571 1570 1570 1569 1572 1573 1573 1572 1571 1572 1571 1570 1567 1565
1551 1552 1554 1556 1559 1562 1564 1567 1569 1570 1571 1572 1573 1573 1574 1576 1576 1577 1578 1579 1580 1581 1580 1580 1579 1577 1576 1574 1574 1571 1571 1571 1571 1572 1572 1573 1571 1571 1572 1572 1570 1568 1566
1552 1553 1555 1558 1560 1562 1565 1567 1569 1570 1571 1572 1573 1573 1574 1575 1576 1577 1578 1579 1579 1580 1581 1580 1579 1577 1575 1574 1574 1574 1573 1573 1574 1572 1572 1573 1573 1573 1573 1572 1571 1568 1565
1552 1554 1557 1559 1561 1564 1565 1568 1569 1571 1571 1572 1573 1574 1575 1575 1576 1577 1577 1578 1579 1580 1580 1580 1579 1577 1575 1574 1574 1574 1574 1573 1573 1571 1573 1573 1573 1573 1573 1573 1571 1569 1566
1552 1553 1556 1560 1562 1563 1565 1567 1569 1570 1572 1573 1573 1574 1575 1575 1576 1575 1577 1578 1579 1580 1580 1580 1579 1577 1576 1574 1574 1574 1575 1574 1574 1574 1574 1574 1573 1573 1573 1573 1572 1569 1567
1551 1552 1555 1558 1561 1562 1564 1566 1568 1570 1571 1573 1574 1574 1575 1575 1575 1575 1577 1578 1579 1580 1580 1580 1579 1578 1577 1576 1575 1575 1575 1575 1575 1575 1574 1574 1573 1573 1572 1573 1572 1570 1569
1550 1551 1553 1555 1559 1561 1563 1566 1567 1568 1571 1572 1573 1573 1574 1575 1575 1575 1577 1578 1578 1579 1581 1580 1578 1577 1577 1577 1576 1574 1574 1575 1575 1574 1573 1574 1573 1574 1573 1572 1572 1571 1570
1547 1549 1551 1553 1557 1559 1562 1564 1565 1567 1569 1571 1572 1573 1574 1575 1576 1577 1576 1578 1579 1579 1579 1579 1579 1578 1578 1577 1577 1577 1574 1575 1575 1574 1574 1573 1573 1573 1573 1572 1571 1570 1570
1543 1548 1551 1553 1556 1558 1560 1563 1565 1566 1568 1569 1571 1572 1573 1574 1576 1576 1578 1578 1580 1580 1579 1579 1579 1579 1578 1578 1578 1578 1577 1575 1575 1575 1575 1574 1573 1573 1572 1572 1571 1570 1571
1542 1545 1549 1552 1554 1557 1559 1561 1564 1565 1566 1568 1570 1572 1572 1573 1575 1576 1577 1578 1579 1580 1579 1579 1579 1579 1579 1579 1579 1578 1577 1576 1576 1575 1575 1575 1574 1573 1572 1572 1572 1571 1572
1539 1543 1547 1550 1552 1555 1558 1560 1562 1564 1565 1567 1568 1570 1572 1572 1574 1575 1577 1578 1579 1579 1578 1578 1579 1578 1579 1579 1579 1579 1578 1577 1576 1576 1575 1575 1574 1573 1573 1572 1572 1571 1572